Content
SEND FEEDBACK

Daily
Averages
Monthly
Summary
French Polynesia

PAPEETE, FRENCH POLYNESIA


Home > Oceania > French Polynesia
Elevation: 2 meters     Latitude: 17 33S     Longitude: 149 36W

WEATHER
 
SELECT A DAY
Number of Records: 208,079;   Date Range: 6/30/96 - 7/20/14
 
SHARE

PRINT THIS DATA

[ ← Previous Day ]
WEATHER ALMANAC - 10 MAY, 2013
[ Next Day → ]
[ °F ]   °C
Weather ElementAverageHighLow
Temperature27.7 °C30 °C (9:30 am)25 °C (4:30 am)
Dewpoint22.7 °C24 °C (11:00 am)21.7 °C (5:00 am)
Humidity73.4 %89 % (7:00 am)62 % (8:00 am)
Barometer1013.5 hPa1015.2 hPa (8:30 am)1012.2 hPa (3:00 am)
Wind Speed13.8 km/h50.4 km/h (11:00 am)
Wind Gust51.8 km/h (1:30 pm)
Weather ElementAverage
Visibility13.2 km
Wind DirectionENE (57.4 °)

Weather ElementTotal
Precipitation---
Cooling Degree Days9.2 (Base 18.3)
Growing Degree Days17.5 (Base 10)
Averaged from 54 records on 10 May, 2013
WEATHER CONDITIONS BREAKOUT
WIND DIRECTION BREAKOUT
WEATHER BY HOUR - 10 MAY, 2013
[ °F ]   °C
Local TimeTemperatureDewpointHumidityBarometerVisibilityWind DirectionWind SpeedGust SpeedPrecipitationEventsConditions
12:30 AM26 °C22 °C78 %1014.2 hPa10 kmEast (80°)7.4 km/hMostly Cloudy
1:00 AM26 °C22 °C78 %1014.2 hPa10 kmESE (110°)7.4 km/hMostly Cloudy
1:30 AM26 °C22 °C78 %1013.2 hPa10 kmESE (110°)7.4 km/hMostly Cloudy
2:00 AM26.1 °C22.2 °C74 %1013.9 hPa19.3 kmCalmOvercast
2:00 AM26 °C22 °C78 %1013.2 hPa10 kmCalmMostly Cloudy
2:30 AM26 °C22 °C78 %1013.2 hPa10 kmVariable1.9 km/hMostly Cloudy
3:00 AM26 °C22 °C78 %1012.2 hPa10 kmVariable5.6 km/hMostly Cloudy
3:30 AM26 °C22 °C78 %1012.2 hPa10 kmCalmOvercast
4:00 AM26 °C22 °C78 %1012.2 hPa10 kmVariable5.6 km/hPartly Cloudy
4:30 AM25 °C22 °C83 %1012.2 hPa10 kmSouth (170°)11.1 km/h
5:00 AM25.6 °C21.7 °C74 %1012.9 hPa54.7 kmESE (110°)5.6 km/hClear
5:00 AM25 °C22 °C83 %1012.2 hPa10 kmVariable5.6 km/hPartly Cloudy
5:30 AM25 °C22 °C83 %1013.2 hPa10 kmVariable3.7 km/hPartly Cloudy
6:00 AM25 °C22 °C83 %1013.2 hPa10 kmVariable3.7 km/hScattered Clouds
6:30 AM25 °C22 °C83 %1013.2 hPa10 kmEast (90°)7.4 km/hPartly Cloudy
7:00 AM25 °C23 °C89 %1013.2 hPa10 kmEast (100°)5.6 km/hPartly Cloudy
7:30 AM27 °C23 °C79 %1014.2 hPa10 kmVariable3.7 km/hPartly Cloudy
8:00 AM27.8 °C21.7 °C62 %1014.6 hPa30.6 kmEast (90°)21.6 km/hPartly Cloudy
8:00 AM28 °C22 °C70 %1014.2 hPa10 kmEast (90°)11.1 km/hPartly Cloudy
8:30 AM29 °C23 °C70 %1015.2 hPa10 kmVariable5.6 km/hPartly Cloudy
9:00 AM29 °C22 °C66 %1014.2 hPa10 kmENE (70°)22.2 km/hPartly Cloudy
9:30 AM30 °C22 °C62 %1015.2 hPa10 kmENE (70°)22.2 km/hPartly Cloudy
10:00 AM30 °C23 °C66 %1014.2 hPa10 kmENE (60°)27.8 km/hPartly Cloudy
10:30 AM30 °C23 °C66 %1014.2 hPa10 kmNE (50°)25.9 km/hPartly Cloudy
11:00 AM30 °C23.9 °C62 %1014.6 hPa30.6 kmENE (60°)50.4 km/hScattered Clouds
11:00 AM30 °C24 °C70 %1014.2 hPa10 kmENE (60°)25.9 km/hPartly Cloudy
11:30 AM30 °C23 °C66 %1014.2 hPa10 kmENE (60°)29.6 km/hPartly Cloudy
12:00 PM30 °C24 °C70 %1013.2 hPa10 kmNE (50°)27.8 km/hPartly Cloudy
12:30 PM30 °C23 °C66 %1013.2 hPa10 kmENE (60°)25.9 km/hPartly Cloudy
1:00 PM30 °C23 °C66 %1012.2 hPa10 kmNE (50°)29.6 km/hPartly Cloudy
1:30 PM30 °C24 °C70 %1012.2 hPa10 kmNE (50°)29.6 km/h51.8 km/hPartly Cloudy
2:00 PM30 °C23.9 °C62 %1012.9 hPa30.6 kmNE (50°)25.9 km/hScattered Clouds
2:00 PM30 °C24 °C70 %1012.2 hPa10 kmNE (50°)25.9 km/hPartly Cloudy
2:30 PM30 °C23 °C66 %1012.2 hPa10 kmNE (50°)24.1 km/hPartly Cloudy
3:00 PM30 °C23 °C66 %1012.2 hPa10 kmNE (50°)20.4 km/hPartly Cloudy
3:30 PM30 °C23 °C66 %1012.2 hPa10 kmVariable14.8 km/h38.9 km/hPartly Cloudy
4:00 PM30 °C23 °C66 %1012.2 hPa10 kmNE (50°)20.4 km/hPartly Cloudy
4:30 PM29 °C23 °C70 %1013.2 hPa10 kmENE (60°)13 km/hPartly Cloudy
5:00 PM28.9 °C23.3 °C64 %1013.2 hPa30.6 kmENE (70°)11.1 km/hMostly Cloudy
5:00 PM29 °C23 °C70 %1013.2 hPa10 kmENE (70°)11.1 km/hScattered Clouds
5:30 PM28 °C23 °C74 %1013.2 hPa10 kmENE (70°)16.7 km/hScattered Clouds
6:00 PM28 °C23 °C74 %1013.2 hPa10 kmENE (60°)16.7 km/hPartly Cloudy
6:30 PM28 °C23 °C74 %1014.2 hPa10 kmENE (60°)13 km/hPartly Cloudy
7:00 PM28 °C22 °C70 %1014.2 hPa10 kmENE (70°)9.3 km/hPartly Cloudy
7:30 PM27 °C23 °C79 %1014.2 hPa10 kmEast (80°)11.1 km/hPartly Cloudy
8:00 PM27.2 °C22.8 °C70 %1015.2 hPa40.2 kmENE (70°)11.1 km/hClear
8:30 PM27 °C23 °C79 %1015.2 hPa10 kmEast (80°)9.3 km/hPartly Cloudy
9:00 PM27 °C23 °C79 %1015.2 hPa10 kmENE (70°)5.6 km/hPartly Cloudy
9:30 PM26 °C23 °C83 %1015.2 hPa10 kmEast (80°)9.3 km/hPartly Cloudy
10:00 PM26 °C23 °C83 %1015.2 hPa10 kmENE (70°)9.3 km/hPartly Cloudy
10:30 PM26 °C23 °C83 %1015.2 hPa10 kmENE (70°)7.4 km/hPartly Cloudy
11:00 PM26.1 °C22.2 °C75 %1014.9 hPa19.3 kmENE (70°)7.4 km/hScattered Clouds
11:00 PM26 °C22 °C78 %1014.2 hPa10 kmENE (70°)7.4 km/hPartly Cloudy
11:30 PM26 °C22 °C78 %1014.2 hPa10 kmEast (80°)7.4 km/hPartly Cloudy
Hourly data recorded from NTAA, located 0 kilometers away from Papeete, French Polynesia







STORIES FROM OUR PARTNERS